CXA8083 ZSJN-ZYHB

Flight info

Callsign CXA8083
Flight time N/A
Altitude 35100
Route BASOV7Y BASOV W4 REPOL V42 GUMED W5 MAKNO W106 UDETI A588 NULRA W206 MAGBI W656 ISLUK W629 LARUN LAR29A
Aircraft B738/M-SDE2E3FGHIRWXY/LB1

Departure

Time 2026-04-23 12:54
Airport Jinan Yaoqiang International Airport (ZSJN)

Arrival

Time N/A
Airport Harbin Taiping International Airport (ZYHB)
Time Latitude Longitude Altitude Speed Heading
2026-04-23 12:39 36.84770 117.21111 76 ft 0 kts 205°
2026-04-23 12:43 36.84782 117.21118 79 ft 4 kts 204°
2026-04-23 12:43 36.84805 117.21130 86 ft 2 kts 203°
2026-04-23 12:44 36.84827 117.21137 83 ft 4 kts 162°
2026-04-23 12:44 36.84846 117.21119 84 ft 4 kts 120°
2026-04-23 12:44 36.84856 117.21094 85 ft 1 kts 114°
2026-04-23 12:47 36.84849 117.21112 82 ft 4 kts 114°
2026-04-23 12:47 36.84831 117.21162 84 ft 9 kts 115°
2026-04-23 12:47 36.84800 117.21245 79 ft 13 kts 115°
2026-04-23 12:48 36.84789 117.21346 82 ft 9 kts 65°
2026-04-23 12:48 36.84856 117.21371 81 ft 13 kts 359°
2026-04-23 12:48 36.84956 117.21369 82 ft 16 kts 360°
2026-04-23 12:48 36.85079 117.21370 82 ft 19 kts 360°
2026-04-23 12:49 36.85217 117.21369 82 ft 20 kts 360°
2026-04-23 12:49 36.85354 117.21368 80 ft 19 kts 359°
2026-04-23 12:49 36.85486 117.21368 82 ft 19 kts
2026-04-23 12:49 36.85613 117.21370 82 ft 18 kts
2026-04-23 12:50 36.85748 117.21370 84 ft 21 kts 360°
2026-04-23 12:50 36.85905 117.21369 81 ft 24 kts
2026-04-23 12:50 36.86078 117.21370 83 ft 26 kts 360°
2026-04-23 12:50 36.86258 117.21369 82 ft 25 kts
2026-04-23 12:51 36.86427 117.21370 81 ft 23 kts
2026-04-23 12:51 36.86586 117.21371 82 ft 23 kts
2026-04-23 12:51 36.86739 117.21370 82 ft 22 kts 360°
2026-04-23 12:51 36.86890 117.21370 82 ft 21 kts 360°
2026-04-23 12:52 36.87036 117.21370 83 ft 21 kts
2026-04-23 12:52 36.87177 117.21370 82 ft 20 kts 360°
2026-04-23 12:52 36.87297 117.21369 83 ft 10 kts
2026-04-23 12:52 36.87339 117.21411 84 ft 9 kts 78°
2026-04-23 12:53 36.87341 117.21484 84 ft 8 kts 89°
2026-04-23 12:53 36.87340 117.21555 87 ft 8 kts 99°
2026-04-23 12:53 36.87290 117.21595 89 ft 11 kts 179°
2026-04-23 12:53 36.87142 117.21595 89 ft 45 kts 180°
2026-04-23 12:54 36.86590 117.21595 85 ft 112 kts 180°
2026-04-23 12:54 36.85624 117.21589 130 ft 160 kts 182°
2026-04-23 12:54 36.84485 117.21572 709 ft 169 kts 181°
2026-04-23 12:54 36.83293 117.21603 1445 ft 171 kts 181°
2026-04-23 12:55 36.82110 117.21693 2130 ft 179 kts 169°
2026-04-23 12:55 36.81008 117.22621 2423 ft 210 kts 129°
2026-04-23 12:55 36.80548 117.24428 2738 ft 234 kts 94°
2026-04-23 12:55 36.80774 117.26498 3165 ft 247 kts 81°
2026-04-23 12:56 36.81116 117.28619 3829 ft 249 kts 84°
2026-04-23 12:56 36.81339 117.30755 4641 ft 248 kts 86°
2026-04-23 12:56 36.81521 117.32900 5379 ft 250 kts 85°
2026-04-23 12:56 36.82001 117.35002 5983 ft 259 kts 57°
2026-04-23 12:57 36.83321 117.36530 6541 ft 268 kts 25°
2026-04-23 12:57 36.85168 117.36990 6968 ft 277 kts
2026-04-23 12:57 36.87123 117.36992 7580 ft 283 kts 358°
2026-04-23 12:57 36.89100 117.36963 8305 ft 285 kts 358°
2026-04-23 12:58 36.91058 117.36935 9039 ft 286 kts 358°
2026-04-23 12:58 36.93055 117.36915 9769 ft 288 kts 359°
2026-04-23 12:58 36.95077 117.36904 10348 ft 296 kts 359°
2026-04-23 12:58 36.97217 117.36898 10515 ft 318 kts 359°
2026-04-23 12:59 36.99497 117.36896 10683 ft 338 kts 359°
2026-04-23 12:59 37.01914 117.36897 10831 ft 357 kts 359°
2026-04-23 12:59 37.04447 117.36901 11115 ft 370 kts 359°
2026-04-23 12:59 37.07035 117.36906 11619 ft 375 kts 359°
2026-04-23 13:00 37.09645 117.36912 12349 ft 374 kts 359°
2026-04-23 13:00 37.12252 117.36934 13123 ft 374 kts
2026-04-23 13:00 37.14842 117.37290 13774 ft 378 kts
2026-04-23 13:00 37.17444 117.37869 14343 ft 382 kts 10°